Regional Weather Roundup
Issued by NWS

Home | Current Version | Previous Version | Text Only | Print | Product List | Glossary On
Versions: 1 2 3 4 5 6 7 8 9 10 11 12 13 14 15 16 17 18 19 20 21 22 23 24 25 26 27 28 29 30 31 32 33 34 35 36 37 38 39 40 41 42 43 44 45 46 47 48 49 50
000
ASUS45 KREV 221610
RWRNV
NEVADA REGIONAL WEATHER ROUNDUP
NATIONAL WEATHER SERVICE RENO NV
900 AM PDT FRI AUG 22 2014

NOTE: "FAIR" INDICATES FEW OR NO CLOUDS BELOW 12,000 FEET WITH NO
SIGNIFICANT WEATHER AND/OR OBSTRUCTIONS TO VISIBILITY.

NVZ001-003-004-221700-
WESTERN NEVADA

CITY           SKY/WX    TMP DP  RH WIND       PRES   REMARKS
RENO           MOSUNNY   69  40  34 NE7       30.01F
CARSON CITY    FAIR      72  37  28 SW8G23    30.03F
MINDEN         FAIR      72  36  26 E6        30.05
SLIDE MTN        N/A     45  32  61 W45         N/A
FALLON         MOSUNNY   73  35  25 S5        29.99F
LOVELOCK       PTSUNNY   71  41  33 CALM      29.98F
HAWTHORNE      SUNNY     73  43  33 CALM      30.01F
$$

NVZ002-CAZ072-073-221700-
NORTHERN AND CENTRAL SIERRA

CITY           SKY/WX    TMP DP  RH WIND       PRES   REMARKS
S. LAKE TAHOE  SUNNY     67  35  30 S16G22    30.13S
TRUCKEE        SUNNY     64  34  32 SW20G30   30.11F
SQUAW VLY 8000   N/A     52  30  43 VRB13       N/A
SUSANVILLE     MOSUNNY   70  39  32 W5        30.01F
BLUE CANYON    SUNNY     64  34  32 S17       30.11F
MAMMOTH LAKES  FAIR      64  36  34 E3        30.20S
BRIDGEPORT     FAIR      65  36  34 S13G24    30.14S
$$

NVZ030-031-036-221700-
NORTHERN NEVADA

CITY           SKY/WX    TMP DP  RH WIND       PRES   REMARKS
ELKO           CLOUDY    63  47  55 S5        30.02R
WINNEMUCCA     LGT RAIN  68  37  32 W7        30.00R
WENDOVER       CLOUDY    70  48  46 S3        30.00S
$$

NVZ035-037-221700-
CENTRAL NEVADA

CITY           SKY/WX    TMP DP  RH WIND       PRES   REMARKS
ELY            SUNNY     67  45  45 S16       30.12F
EUREKA           N/A     70  40  33 W5        30.08S
$$

NVZ013-014-221700-
SOUTH CENTRAL NEVADA

CITY           SKY/WX    TMP DP  RH WIND       PRES   REMARKS
TONOPAH        SUNNY     67  46  47 S5        30.10F
$$

NVZ017-020-022-221700-
SOUTHERN NEVADA

CITY           SKY/WX    TMP DP  RH WIND       PRES   REMARKS
LAS VEGAS      SUNNY     78  52  40 SW3       29.96S
N. LAS VEGAS   SUNNY     76  54  46 E3        29.99S
NELLIS AFB     SUNNY     76  58  51 E2        29.98S
HENDERSON      SUNNY     76  54  46 W3        30.02S
MERCURY        SUNNY     77  49  37 SE13      30.01S
$$



USA.gov is the U.S. government's official web portal to all federal, state and local government web resources and services.